Date_and_time,latitude,longitude,wind_speed,RelWindDirFrom,WindDirFrom,air_pressure,air_temperature,relative_humidity,Temp,platform_speed_wrt_ground,air_pressure_at_mean_sea_level,platform_orientation
2019-03-15 23:50,50.6304466666667,-96.98077,8.1,12.7,322,994.98,-3.8,50,0.84,0.0,1023.38,0.0
2019-03-16 00:00,50.6304466666667,-96.98077,7.7,11.7,322,995.09,-3.9,51,0.84,0.0,1023.50,0.0
2019-03-16 00:00,50.6304466666667,-96.98077,7.3,7.3,326,995.16,-4.0,52,0.84,0.0,1023.58,360.0
2019-03-16 00:10,50.6304466666667,-96.98077,6.8,9.7,327,995.21,-4.1,51,0.84,0.0,1023.64,360.0
2019-03-16 00:20,50.6304483333333,-96.98077,7.9,13.0,323,995.18,-4.4,50,0.84,0.0,1023.63,360.0
2019-03-16 00:30,50.6304483333333,-96.98077,6.9,10.7,326,995.27,-4.7,51,0.84,0.0,1023.73,360.0
2019-03-16 00:40,50.6304516666667,-96.9807766666667,8.3,14.9,326,995.29,-5.0,49,0.84,0.0,1023.78,360.0
2019-03-16 00:50,50.6304533333333,-96.980785,7.3,12.1,323,995.37,-5.2,49,0.84,0.0,1023.88,360.0
2019-03-16 01:00,50.6304233333333,-96.9807733333333,6.6,9.5,320,995.45,-5.4,48,0.84,0.0,1023.99,219.5
2019-03-16 01:10,50.6304533333333,-96.980775,6.0,8.7,315,995.58,-5.6,48,0.84,0.0,1024.14,219.5
2019-03-16 01:20,50.6304433333333,-96.9807583333333,6.3,8.9,310,995.65,-5.8,48,0.85,0.0,1024.24,219.5
2019-03-16 01:30,50.6304383333333,-96.9807616666667,5.0,7.4,296,995.81,-6.1,50,0.85,0.0,1024.42,219.5
2019-03-16 01:40,50.63044,-96.980765,6.1,8.3,290,995.86,-6.3,50,0.85,0.0,1024.49,219.5
2019-03-16 01:50,50.6304416666667,-96.9807666666667,5.6,8.5,297,995.95,-6.5,51,0.84,0.0,1024.60,219.5
2019-03-16 02:00,50.63044,-96.9807666666667,5.6,9.0,300,996.10,-6.7,51,0.85,0.0,1024.76,142.0
2019-03-16 02:10,50.63044,-96.980765,5.1,7.5,297,996.18,-7.0,52,0.85,0.0,1024.88,142.0
2019-03-16 02:20,50.6304416666667,-96.9807666666667,5.4,8.0,296,996.17,-7.2,52,0.84,0.0,1024.90,142.0
2019-03-16 02:30,50.6304483333333,-96.9807816666667,5.0,7.3,281,996.18,-7.4,53,0.83,0.0,1024.94,142.0
2019-03-16 02:40,50.6304516666667,-96.980765,5.2,8.0,277,996.21,-7.7,54,0.83,0.0,1025.00,142.0
2019-03-16 02:50,50.630445,-96.98076,5.6,8.3,288,996.27,-8.0,54,0.83,0.0,1025.08,142.0
2019-03-16 03:00,50.630445,-96.9807633333333,5.6,7.7,290,996.34,-8.1,54,0.83,0.0,1025.18,360.0
2019-03-16 03:10,50.630445,-96.9807633333333,5.4,7.7,302,996.34,-8.2,53,0.83,0.0,1025.19,360.0
2019-03-16 03:20,50.6304483333333,-96.9807716666667,4.8,6.5,296,996.41,-8.4,54,0.82,0.0,1025.29,360.0
2019-03-16 03:30,50.6304516666667,-96.98077,5.4,7.6,290,996.45,-8.7,54,0.82,0.0,1025.36,360.0
2019-03-16 03:40,50.6304533333333,-96.9807733333333,5.7,7.4,286,996.45,-8.9,55,0.82,0.0,1025.38,360.0
2019-03-16 03:50,50.6304516666667,-96.9807733333333,5.8,8.4,297,996.44,-8.9,55,0.82,0.0,1025.38,360.0
2019-03-16 04:00,50.6304516666667,-96.9807733333333,5.0,7.1,304,996.51,-8.9,55,0.82,0.0,1025.47,9.8
2019-03-16 04:10,50.6304533333333,-96.9807733333333,5.4,6.7,302,996.51,-9.0,55,0.81,0.0,1025.48,9.8
2019-03-16 04:20,50.630445,-96.9807816666667,4.5,6.1,304,996.61,-9.1,55,0.81,0.0,1025.61,9.8
2019-03-16 04:30,50.6304116666667,-96.9807366666667,4.0,5.4,287,996.62,-9.3,56,0.81,0.0,1025.65,9.8
2019-03-16 04:40,50.6304483333333,-96.9807666666667,4.5,5.8,286,996.66,-9.5,56,0.81,0.0,1025.71,9.8
2019-03-16 04:50,50.6304466666667,-96.9807683333333,3.9,4.9,272,996.80,-9.7,57,0.81,0.0,1025.88,9.8
2019-03-16 05:00,50.6304633333333,-96.9807866666667,4.2,5.9,261,996.92,-10.1,58,0.81,0.0,1026.03,323.4
2019-03-16 05:10,50.6304416666667,-96.9807633333333,3.5,5.3,275,997.03,-10.3,59,0.81,0.0,1026.17,323.4
2019-03-16 05:20,50.630445,-96.9807733333333,2.8,4.3,304,997.14,-10.4,59,0.81,0.0,1026.30,323.4
2019-03-16 05:30,50.6304466666667,-96.98077,3.6,4.7,310,997.19,-10.5,60,0.80,0.0,1026.36,323.4
2019-03-16 05:40,50.6304466666667,-96.9807716666667,3.2,5.5,295,997.21,-11.0,62,0.80,0.0,1026.41,323.4
2019-03-16 05:50,50.630445,-96.9807716666667,4.1,5.9,298,997.15,-10.8,60,0.80,0.0,1026.35,323.4
2019-03-16 06:00,50.630445,-96.98077,3.7,4.8,308,997.20,-10.8,60,0.80,0.0,1026.40,0.0
2019-03-16 06:10,50.6304383333333,-96.9807533333333,3.0,4.4,289,997.23,-10.9,61,0.79,0.0,1026.44,0.0
2019-03-16 06:20,50.630445,-96.9807616666667,3.9,5.4,291,997.25,-11.0,61,0.79,0.0,1026.48,0.0
2019-03-16 06:30,50.6304366666667,-96.9807666666667,3.6,5.9,297,997.34,-11.1,62,0.79,0.0,1026.59,0.0
2019-03-16 06:40,50.6304383333333,-96.980765,4.0,5.7,310,997.41,-11.3,62,0.79,0.0,1026.68,0.0
2019-03-16 06:50,50.63044,-96.9807633333333,2.5,3.8,326,997.48,-11.3,63,0.79,0.0,1026.77,0.0
2019-03-16 07:00,50.6304383333333,-96.9807633333333,2.3,2.8,335,997.53,-11.5,63,0.79,0.0,1026.85,165.5
2019-03-16 07:10,50.6304383333333,-96.980765,1.9,3.0,319,997.57,-11.5,63,0.79,0.0,1026.90,165.5
2019-03-16 07:20,50.63044,-96.9807666666667,1.4,3.0,271,997.62,-12.2,66,0.78,0.0,1027.00,165.5
2019-03-16 07:30,50.63044,-96.9807666666667,2.1,3.1,285,997.70,-12.2,67,0.79,0.0,1027.10,165.5
2019-03-16 07:40,50.6304416666667,-96.9807666666667,2.0,2.7,271,997.73,-12.3,67,0.78,0.0,1027.13,165.5
2019-03-16 07:50,50.63046,-96.9807633333333,2.4,4.0,226,997.87,-13.4,70,0.78,0.0,1027.34,165.5
2019-03-16 08:00,50.6304583333333,-96.98077,3.4,4.4,255,997.90,-13.5,70,0.78,0.0,1027.38,107.7
2019-03-16 08:10,50.6304533333333,-96.98077,3.7,5.0,262,997.90,-13.1,70,0.78,0.0,1027.36,107.7
2019-03-16 08:20,50.6304533333333,-96.9807683333333,2.6,4.7,244,997.95,-13.2,69,0.77,0.0,1027.43,107.7
2019-03-16 08:30,50.6304533333333,-96.9807666666667,2.0,3.3,245,997.93,-13.5,71,0.76,0.0,1027.43,107.7
2019-03-16 08:40,50.6304516666667,-96.9807683333333,2.0,3.6,259,997.88,-13.5,71,0.76,0.0,1027.39,107.7
2019-03-16 08:50,50.6304516666667,-96.9807683333333,2.8,3.8,281,997.86,-12.9,70,0.76,0.0,1027.34,107.7
2019-03-16 09:00,50.630445,-96.9807516666667,2.7,4.7,269,997.93,-13.3,71,0.77,0.0,1027.44,90.0
2019-03-16 09:10,50.6304833333333,-96.98078,3.2,4.8,252,997.94,-13.9,72,0.76,0.0,1027.52,90.0
2019-03-16 09:20,50.6304466666667,-96.98076,3.5,4.3,263,997.93,-14.3,74,0.77,0.0,1027.53,90.0
2019-03-16 09:30,50.6304483333333,-96.9807683333333,2.4,5.4,258,997.98,-14.4,74,0.77,0.0,1027.59,90.0
2019-03-16 09:40,50.630445,-96.98077,4.1,5.6,255,998.01,-14.2,74,0.77,0.0,1027.68,90.0
2019-03-16 09:50,50.630445,-96.98077,3.4,4.5,250,998.06,-14.3,74,0.76,0.0,1027.74,90.0
2019-03-16 10:00,50.630445,-96.98077,3.2,5.3,256,998.02,-14.7,76,0.75,0.0,1027.70,90.0
2019-03-16 10:10,50.630445,-96.98077,1.5,2.7,250,998.00,-14.8,76,0.75,0.0,1027.69,90.0
2019-03-16 10:20,50.630445,-96.98077,0.8,1.9,266,998.02,-14.6,77,0.75,0.0,1027.72,90.0
2019-03-16 10:30,50.630445,-96.98077,0.3,1.4,270,998.07,-14.7,77,0.73,0.0,1027.77,90.0
2019-03-16 10:40,50.63044,-96.9807616666667,0.8,3.3,235,998.09,-15.1,79,0.72,0.0,1027.78,90.0
2019-03-16 10:50,50.6304433333333,-96.980765,2.7,3.4,230,998.15,-16.0,80,0.72,0.0,1027.92,90.0
2019-03-16 11:00,50.630445,-96.980765,2.0,2.9,237,998.19,-15.6,83,0.85,0.0,1027.98,360.0
2019-03-16 11:10,50.6304416666667,-96.9807683333333,2.0,2.4,229,998.22,-15.3,82,0.72,0.0,1028.01,360.0
2019-03-16 11:20,50.630445,-96.980765,1.8,2.2,217,998.27,-16.1,83,0.72,0.0,1028.11,360.0
2019-03-16 11:30,50.6304433333333,-96.9807716666667,2.1,2.7,178,998.21,-16.7,84,0.73,0.0,1028.08,360.0
2019-03-16 11:40,50.6304416666667,-96.98077,2.6,3.1,190,998.24,-17.5,85,0.74,0.0,1028.16,360.0
2019-03-16 11:50,50.6304433333333,-96.9807683333333,3.2,4.4,210,998.29,-16.8,88,0.74,0.0,1028.19,360.0
2019-03-16 12:00,50.6304516666667,-96.9807683333333,3.4,4.1,210,998.34,-16.4,88,0.74,0.0,1028.23,347.4
2019-03-16 12:10,50.6304333333333,-96.9807583333333,3.2,3.8,220,998.42,-16.1,87,0.74,0.0,1028.28,347.4
2019-03-16 12:20,50.6304383333333,-96.980765,3.4,4.0,218,998.44,-15.8,86,0.74,0.0,1028.29,347.4
2019-03-16 12:30,50.6304366666667,-96.980775,3.0,3.6,202,998.43,-15.8,85,0.73,0.0,1028.30,347.4
2019-03-16 12:40,50.6304366666667,-96.9807733333333,2.3,2.9,195,998.43,-16.7,84,0.72,0.0,1028.41,347.4
2019-03-16 12:50,50.6304366666667,-96.98077,3.2,3.9,210,998.47,-17.2,87,0.71,0.0,1028.46,347.4
2019-03-16 13:00,50.6304383333333,-96.98077,3.6,4.1,211,998.51,-15.9,87,0.71,0.0,1028.40,90.0
2019-03-16 13:10,50.6304383333333,-96.98077,3.3,3.9,208,998.57,-15.6,84,0.71,0.0,1028.49,90.0
2019-03-16 13:20,50.6304383333333,-96.98077,3.4,4.0,216,998.62,-15.4,84,0.71,0.0,1028.57,90.0
2019-03-16 13:30,50.6304366666667,-96.98077,3.3,3.9,210,998.61,-15.3,82,0.71,0.0,1028.61,90.0
2019-03-16 13:40,50.6304383333333,-96.9807683333333,2.8,3.4,185,998.58,-15.4,81,0.70,0.0,1028.54,90.0
2019-03-16 13:50,50.6304383333333,-96.9807683333333,3.1,3.8,174,998.50,-15.8,82,0.70,0.0,1028.46,90.0
2019-03-16 14:00,50.6304383333333,-96.9807683333333,3.5,4.5,176,998.49,-16.0,83,0.71,0.0,1028.44,90.0
2019-03-16 14:10,50.6304383333333,-96.9807683333333,3.9,4.6,171,998.54,-15.7,84,0.71,0.0,1028.45,90.0
2019-03-16 14:20,50.6304383333333,-96.9807683333333,4.9,5.7,161,998.55,-15.1,83,0.71,0.0,1028.43,90.0
2019-03-16 14:30,50.6304383333333,-96.9807683333333,4.2,5.0,177,998.54,-14.7,82,0.71,0.0,1028.45,90.0
2019-03-16 14:40,50.6304383333333,-96.9807683333333,4.9,6.2,179,998.54,-14.3,80,0.71,0.0,1028.45,90.0
2019-03-16 14:50,50.6304383333333,-96.9807683333333,5.8,6.4,175,998.49,-13.5,78,0.70,0.0,1028.28,90.0
2019-03-16 15:00,50.6304383333333,-96.9807683333333,6.4,7.4,172,998.41,-12.6,75,0.70,0.0,1028.13,360.0
2019-03-16 15:10,50.6304383333333,-96.9807683333333,6.8,7.8,176,998.37,-12.1,75,0.71,0.0,1028.04,360.0
2019-03-16 15:20,50.6304383333333,-96.9807683333333,7.6,8.6,180,998.38,-11.6,73,0.71,0.0,1028.02,360.0
2019-03-16 15:30,50.6304383333333,-96.98077,6.6,7.9,183,998.36,-11.2,71,0.71,0.0,1027.99,360.0
2019-03-16 15:40,50.63044,-96.98077,6.4,7.3,175,998.30,-10.8,69,0.71,0.0,1027.92,360.0
2019-03-16 15:50,50.63044,-96.98077,5.2,6.1,170,998.31,-10.2,67,0.70,0.0,1027.91,360.0
2019-03-16 16:00,50.63044,-96.98077,5.1,6.1,170,998.26,-9.5,65,0.70,0.0,1027.79,0.0
2019-03-16 16:10,50.6304516666667,-96.9807766666667,5.9,6.7,167,998.21,-8.8,63,0.71,0.0,1027.67,0.0
2019-03-16 16:20,50.6304516666667,-96.9807783333333,5.9,6.8,169,998.14,-8.2,61,0.71,0.0,1027.54,0.0
2019-03-16 16:30,50.6304483333333,-96.98078,5.7,7.2,174,998.20,-7.5,59,0.71,0.0,1027.54,0.0
2019-03-16 16:40,50.630445,-96.9807783333333,7.5,10.0,173,998.14,-7.1,59,0.71,0.0,1027.41,0.0
2019-03-16 16:50,50.6304466666667,-96.9807816666667,8.4,10.2,180,998.06,-7.0,58,0.71,0.0,1027.27,0.0
2019-03-16 17:00,50.630445,-96.9807816666667,9.1,11.5,182,997.94,-6.8,59,0.71,0.0,1027.11,270.0
2019-03-16 17:10,50.6304466666667,-96.98078,10.2,12.3,182,997.83,-6.9,59,0.71,0.0,1026.97,270.0
2019-03-16 17:20,50.630445,-96.9807783333333,11.4,13.1,181,997.67,-7.0,60,0.71,0.0,1026.79,270.0
2019-03-16 17:30,50.630445,-96.9807783333333,12.1,13.4,178,997.55,-6.8,59,0.71,0.0,1026.64,270.0
2019-03-16 17:40,50.630445,-96.9807783333333,11.6,13.3,178,997.58,-6.5,59,0.72,0.0,1026.61,270.0
2019-03-16 17:50,50.630425,-96.980765,10.5,13.0,178,997.57,-6.3,59,0.72,0.0,1026.55,270.0
2019-03-16 18:00,50.63043,-96.9807633333333,11.0,13.2,179,997.42,-6.1,59,0.72,0.0,1026.35,360.0
2019-03-16 18:10,50.6304466666667,-96.9807983333333,9.9,13.0,183,997.45,-5.6,58,0.72,0.0,1026.32,360.0
2019-03-16 18:20,50.630445,-96.9807733333333,10.0,14.2,183,997.28,-5.1,56,0.72,0.0,1026.09,360.0
2019-03-16 18:30,50.6304433333333,-96.980775,10.7,14.7,181,997.14,-4.9,57,0.72,0.0,1025.90,360.0
2019-03-16 18:40,50.6304433333333,-96.9807766666667,13.0,15.8,177,996.97,-5.1,57,0.73,0.0,1025.74,360.0
2019-03-16 18:50,50.6304433333333,-96.9807766666667,13.6,16.6,179,996.80,-5.1,57,0.73,0.0,1025.55,360.0
2019-03-16 19:00,50.6304416666667,-96.980775,14.4,17.1,179,996.63,-5.1,57,0.73,0.0,1025.38,270.0
2019-03-16 19:10,50.6304416666667,-96.980775,13.7,18.0,179,996.45,-5.1,58,0.73,0.0,1025.19,270.0
2019-03-16 19:20,50.6304566666667,-96.9807766666667,13.8,17.0,181,996.27,-4.8,58,0.74,0.0,1024.98,270.0
2019-03-16 19:30,50.6304533333333,-96.9807766666667,14.5,18.0,181,995.98,-4.5,57,0.74,0.0,1024.65,270.0
2019-03-16 19:40,50.6304283333333,-96.9807866666667,14.1,17.2,184,995.85,-4.3,56,0.75,0.0,1024.51,270.0
2019-03-16 19:50,50.630445,-96.9807766666667,12.2,15.1,182,995.71,-3.9,55,0.75,0.0,1024.33,270.0
2019-03-16 20:00,50.630445,-96.9807733333333,11.3,14.7,190,995.68,-3.5,55,0.75,0.0,1024.25,90.0
2019-03-16 20:10,50.630445,-96.980775,11.2,15.5,192,995.66,-3.3,55,0.76,0.0,1024.19,90.0
2019-03-16 20:20,50.6304433333333,-96.980775,12.5,19.8,193,995.54,-3.0,56,0.76,0.0,1024.04,90.0
2019-03-16 20:30,50.6304433333333,-96.9807716666667,13.9,19.5,191,995.43,-3.2,57,0.76,0.0,1023.95,90.0
2019-03-16 20:40,50.6304433333333,-96.9807783333333,14.7,18.7,185,995.33,-3.4,58,0.77,0.0,1023.86,90.0
2019-03-16 20:50,50.63044,-96.9807716666667,14.2,17.8,189,995.34,-3.3,58,0.77,0.0,1023.86,90.0
2019-03-16 21:00,50.6304383333333,-96.98077,12.7,16.0,187,995.33,-3.2,59,0.77,0.0,1023.84,360.0
2019-03-16 21:10,50.6304366666667,-96.980765,13.9,19.1,187,995.25,-3.2,59,0.77,0.0,1023.74,360.0
2019-03-16 21:20,50.6304383333333,-96.9807666666667,15.1,19.7,176,995.10,-3.6,60,0.78,0.0,1023.59,360.0
2019-03-16 21:30,50.6304516666667,-96.9807766666667,13.6,17.1,182,995.07,-3.5,60,0.77,0.0,1023.55,360.0
2019-03-16 21:40,50.6304466666667,-96.9807783333333,15.0,19.3,181,994.87,-3.3,60,0.77,0.0,1023.31,360.0
2019-03-16 21:50,50.63044,-96.9807716666667,13.4,17.6,183,994.87,-3.2,63,0.78,0.0,1023.29,360.0
2019-03-16 22:00,50.630435,-96.980755,12.4,15.7,187,994.77,-3.6,68,0.78,0.0,1023.19,119.2
2019-03-16 22:10,50.6304416666667,-96.98077,10.9,14.4,193,994.77,-3.9,75,0.78,0.0,1023.18,119.2
2019-03-16 22:20,50.630445,-96.98077,11.0,14.8,195,994.83,-3.9,78,0.78,0.0,1023.26,119.2
2019-03-16 22:30,50.6304416666667,-96.9807666666667,12.0,14.7,187,994.74,-3.9,78,0.79,0.0,1023.18,119.2
2019-03-16 22:40,50.6304366666667,-96.98077,11.2,15.5,186,994.71,-3.8,80,0.79,0.0,1023.15,119.2
2019-03-16 22:50,50.6304333333333,-96.9807666666667,11.1,14.1,185,994.69,-4.0,82,0.79,0.0,1023.12,119.2
2019-03-16 23:00,50.630435,-96.9807666666667,9.1,12.0,188,994.69,-4.0,86,0.79,0.0,1023.12,131.7
2019-03-16 23:10,50.6304383333333,-96.9807683333333,7.7,9.8,188,994.66,-4.1,91,0.79,0.0,1023.11,131.7
2019-03-16 23:20,50.6304416666667,-96.98077,6.8,8.8,182,994.55,-4.1,94,0.79,0.0,1023.00,131.7
2019-03-16 23:30,50.6304416666667,-96.98077,7.8,10.1,180,994.40,-3.9,91,0.80,0.0,1022.83,131.7
